Weather History for MMDO - September, 2013

Change the Weather History Date:

Thursday, September 26, 2013

  Actual Average Record
Temperature  
Mean Temperature 68 °F -  
Max Temperature 84 °F 77 °F 87 °F (1999)
Min Temperature 51 °F 48 °F 46 °F (2002)
Cooling Degree Days 2    
Growing Degree Days 18 (Base 50)    
Moisture  
Dew Point 53 °F    
Average Humidity 59    
Maximum Humidity 94    
Minimum Humidity 26    
Precipitation  
Precipitation 0.00 in - - ()
Sea Level Pressure  
Sea Level Pressure 29.91 in    
Wind  
Wind Speed 2 mph ()    
Max Wind Speed 9 mph    
Max Gust Speed -    
Visibility 11.2 miles    
Events      
Averages and records for this station are not official NWS values.
T = Trace of Precipitation, MM = Missing Value Source: Averaged Metar Reports

Daily Weather History Graph

Daily Weather History Graph

Search for Another Location

Airport or City:

Trip Planner

Search our weather history database for the weather conditions in past years. The results will help you decide how hot, cold, wet, or windy it might be!

Date:

Astronomy

Sep. 26, 2013 Rise Set
Actual Time 7:48 AM CDT 7:49 PM CDT
Civil Twilight 7:25 AM CDT 8:12 PM CDT
Nautical Twilight 6:59 AM CDT 8:38 PM CDT
Astronomical Twilight 6:32 AM CDT 9:05 PM CDT
Moon 12:32 AM CDT (9/26) 2:10 PM CDT (9/26)
Length of Visible Light 12h 46m
Length of Day
12h 01m
Waning Gibbous, 54% of the Moon is Illuminated
Sep 26
Waning Gibbous
Sep 26
Last Quarter
Oct 4
New
Oct 11
First Quarter
Oct 18
Full

Hourly Weather History & Observations

Time (CDT) Temp. Heat Index Dew Point Humidity Pressure Visibility Wind Dir Wind Speed Gust Speed Precip Events Conditions
12:58 AM 65 °F - 52 °F 54% 29.62 in 6 mi Calm Calm - -  
5:40 AM 53.6 °F - 51.8 °F 94% 30.09 in 8.0 mi NNW 3.5 mph - N/A   Clear
6:40 AM 51.8 °F - 50.0 °F 94% 29.73 in 8.0 mi NW 4.6 mph - N/A   Partly Cloudy
6:58 AM 57 °F - 54 °F 86% 29.75 in 6 mi Calm Calm - -   Scattered Clouds
7:40 AM 51.8 °F - 50.0 °F 94% 30.12 in 8.0 mi WNW 4.6 mph - N/A   Scattered Clouds
8:41 AM 55.4 °F - 53.6 °F 94% 30.13 in 8.0 mi Calm Calm - N/A   Scattered Clouds
9:40 AM 60.8 °F - 57.2 °F 88% 29.77 in 10.0 mi Calm Calm - N/A   Partly Cloudy
9:55 AM 66 °F - 56 °F 61% 29.83 in 31 mi Calm Calm - -   Scattered Clouds
10:41 AM 68.0 °F - 57.2 °F 68% 30.16 in 10.0 mi Calm Calm - N/A   Partly Cloudy
11:40 AM 71.6 °F - 55.4 °F 57% 30.17 in 10.0 mi Calm Calm - N/A   Partly Cloudy
12:40 PM 78 °F - 56 °F 36% 29.80 in 19 mi NE 2.2 mph - -   Partly Cloudy
12:41 PM 75.2 °F - 55.4 °F 50% 29.72 in 10.0 mi SE 4.6 mph - N/A   Scattered Clouds
1:47 PM 77.0 °F - 51.8 °F 41% 30.12 in 14.0 mi Calm Calm - N/A   Partly Cloudy
2:43 PM 78.8 °F - 51.8 °F 39% 30.09 in 14.0 mi ESE 6.9 mph - N/A   Partly Cloudy
3:40 PM 84 °F - 55 °F 26% 29.66 in 25 mi ESE 2.2 mph - -   Partly Cloudy
3:44 PM 80.6 °F - 51.8 °F 37% 29.64 in 14.0 mi NE 6.9 mph - N/A   Partly Cloudy
4:44 PM 80.6 °F - 48.2 °F 32% 30.04 in 14.0 mi ESE 6.9 mph - N/A   Partly Cloudy
5:46 PM 80.6 °F 80.3 °F 53.6 °F 39% 30.03 in 14.0 mi SSW 9.2 mph - N/A   Partly Cloudy
6:42 PM 77.0 °F - 48.2 °F 36% 29.67 in 14.0 mi East 6.9 mph - N/A   Scattered Clouds
7:40 PM 73.4 °F - 53.6 °F 50% 30.06 in 14.0 mi South 5.8 mph - N/A   Scattered Clouds
8:46 PM 68.0 °F - 57.2 °F 68% 30.08 in 14.0 mi South 5.8 mph - N/A   Scattered Clouds
9:50 PM 69 °F - 54 °F 50% 29.63 in 6 mi West 2.2 mph - -   Scattered Clouds
10:42 PM 64.4 °F - 53.6 °F 68% 30.13 in 14.0 mi South 5.8 mph - N/A   Scattered Clouds